Location: Newark
(45.2500°N, 7.5833°E)
Time: 18:20:55
(UTC+00:00)

A-11 Canister half - Pass Details

Date: 29 January 2020
Orbit: 1525 x 1684 km, 47.3° (Epoch: 17 February)

Event Time Altitude Azimuth Distance (km) Brightness Sun altitude
Rises 16:50:23 0° 245° (WSW) 4,667 14.6 -3.8°
Reaches altitude 10° 16:53:24 10° 244° (WSW) 3,690 13.0 -4.3°
Maximum altitude 17:02:43 83° 159° (SSE) 1,559 9.1 -5.9°
Drops below altitude 10° 17:12:17 10° 73° (ENE) 3,783 10.4 -7.5°
Enters shadow 17:12:43 - 73° (ENE) 3,922 10.4 -7.5°
